Martinsburg, WV

5:47 AM EDT on April 27, 2017 (GMT -0400)
Eastern W Va Regional-Shepherd

Weather History for KMRB - April, 2013

Change the Weather History Date:

Saturday, April 6, 2013

  Actual Average Record
Temperature  
Mean Temperature 42 °F 49 °F  
Max Temperature 55 °F 61 °F 90 °F (2010)
Min Temperature 29 °F 38 °F 21 °F (2016)
Degree Days  
Heating Degree Days 23 16  
Month to date heating degree days 142 99  
Since 1 July heating degree days 4555 4769  
Cooling Degree Days 0 0  
Month to date cooling degree days 0 0  
Year to date cooling degree days 0 1  
Moisture  
Dew Point 19 °F    
Average Humidity 42    
Maximum Humidity 63    
Minimum Humidity 20    
Precipitation  
Precipitation 0.00 in 0.11 in 1.05 in (1936)
Month to date precipitation 0.04 0.67  
Year to date precipitation 7.08 8.97  
Sea Level Pressure  
Sea Level Pressure 30.24 in    
Wind  
Wind Speed 6 mph (East)    
Max Wind Speed 22 mph    
Max Gust Speed 28 mph    
Visibility 10 miles    
Events      
T = Trace of Precipitation, MM = Missing Value Source: NWS Daily Summary

Daily Weather History Graph

Daily Weather History Graph

Search for Another Location

Airport or City:

Trip Planner

Search our weather history database for the weather conditions in past years. The results will help you decide how hot, cold, wet, or windy it might be!

Date:

Astronomy

Apr. 06, 2013 Rise Set
Actual Time 6:48 AM EDT 7:40 PM EDT
Civil Twilight 6:20 AM EDT 8:08 PM EDT
Nautical Twilight 5:48 AM EDT 8:40 PM EDT
Astronomical Twilight 5:15 AM EDT 9:14 PM EDT
Moon 4:29 AM EDT (4/6) 4:08 PM EDT (4/6)
Length of Visible Light 13h 47m
Length of Day
12h 52m
Waning Crescent, 15% of the Moon is Illuminated
Apr 6
Waning Crescent
Apr 10
New
Apr 18
First Quarter
Apr 25
Full
May 2
Last Quarter

Hourly Weather History & Observations

Time (EDT) Temp. Windchill Dew Point Humidity Pressure Visibility Wind Dir Wind Speed Gust Speed Precip Events Conditions
12:53 AM 43.0 °F 34.0 °F 16.0 °F 34% 30.11 in 10.0 mi NNW 21.9 mph 28.8 mph N/A   Clear
1:53 AM 41.0 °F 34.7 °F 18.0 °F 40% 30.14 in 10.0 mi NW 10.4 mph 23.0 mph N/A   Clear
2:53 AM 37.9 °F 35.5 °F 19.0 °F 47% 30.16 in 10.0 mi East 3.5 mph - N/A   Clear
3:53 AM 36.0 °F 33.3 °F 19.0 °F 50% 30.19 in 10.0 mi North 3.5 mph - N/A   Clear
4:53 AM 30.0 °F - 19.9 °F 66% 30.19 in 10.0 mi Calm Calm - N/A   Clear
5:53 AM 32.0 °F 26.4 °F 19.9 °F 61% 30.22 in 10.0 mi WNW 5.8 mph - N/A   Clear
6:53 AM 33.1 °F 27.7 °F 19.9 °F 59% 30.25 in 10.0 mi NNW 5.8 mph - N/A   Clear
7:53 AM 36.0 °F 32.1 °F 21.0 °F 55% 30.29 in 10.0 mi NNW 4.6 mph - N/A   Clear
8:53 AM 39.0 °F 33.4 °F 19.9 °F 46% 30.32 in 10.0 mi North 8.1 mph - N/A   Clear
9:53 AM 41.0 °F 37.1 °F 19.9 °F 43% 30.33 in 10.0 mi NNE 5.8 mph - N/A   Clear
10:53 AM 43.0 °F 41.3 °F 18.0 °F 37% 30.33 in 10.0 mi NE 3.5 mph - N/A   Clear
11:53 AM 46.0 °F 44.8 °F 17.1 °F 31% 30.32 in 10.0 mi Variable 3.5 mph - N/A   Clear
12:53 PM 48.0 °F - 17.1 °F 29% 30.32 in 10.0 mi Variable 3.5 mph - N/A   Clear
1:53 PM 51.1 °F - 19.0 °F 28% 30.30 in 10.0 mi Calm Calm - N/A   Clear
2:53 PM 51.1 °F - 16.0 °F 25% 30.28 in 10.0 mi Variable 4.6 mph - N/A   Clear
3:53 PM 55.0 °F - 21.0 °F 27% 30.24 in 10.0 mi ESE 10.4 mph - N/A   Clear
4:53 PM 55.0 °F - 15.1 °F 21% 30.23 in 10.0 mi South 9.2 mph - N/A   Clear
5:53 PM 55.0 °F - 16.0 °F 22% 30.23 in 10.0 mi SE 5.8 mph - N/A   Clear
6:53 PM 53.1 °F - 17.1 °F 24% 30.23 in 10.0 mi SE 8.1 mph - N/A   Clear
7:53 PM 51.1 °F - 17.1 °F 26% 30.23 in 10.0 mi SE 4.6 mph - N/A   Clear
8:53 PM 48.0 °F - 18.0 °F 30% 30.23 in 10.0 mi SE 3.5 mph - N/A   Clear
9:53 PM 46.9 °F - 19.0 °F 33% 30.23 in 10.0 mi SSE 6.9 mph - N/A   Clear
10:53 PM 46.9 °F - 21.9 °F 37% 30.24 in 10.0 mi South 5.8 mph - N/A   Clear
11:53 PM 45.0 °F 40.1 °F 21.9 °F 40% 30.23 in 10.0 mi SSE 9.2 mph - N/A   Clear